Wind_Speed
11 8 7 8 9 11 11 9 7 7 6 6 7 8 9 8 8 8 9 9 10 11 12 12 13 14 15 16 18 19 21 22
11 10 8 9 10 11 9 8 8 7 7 7 8 9 9 9 10 10 10 11 12 12 13 14 15 16 18 19 20 22 24 25
12 11 10 10 11 10 9 9 8 8 8 9 10 11 12 12 13 14 15 15 15 16 17 18 19 21 22 24 25 25 26 28
12 12 12 11 11 11 11 11 10 10 10 11 12 13 14 14 15 16 16 17 17 17 18 20 23 25 27 29 29 29 30 30
13 14 14 13 12 12 12 13 13 13 12 12 13 15 16 17 18 18 18 18 18 19 22 25 27 29 32 34 34 34 34 34
15 15 16 15 14 15 15 16 15 15 14 13 15 16 18 19 19 20 19 19 20 22 25 28 31 32 33 34 34 34 34 35
18 18 18 18 17 17 18 18 18 17 16 15 16 17 19 20 21 21 21 21 23 25 28 30 31 33 34 34 35 35 34 34
20 20 20 20 20 20 21 20 20 19 18 17 18 19 21 22 23 23 23 23 25 28 29 30 32 33 34 34 33 32 32 31
22 22 22 22 23 23 23 23 22 21 20 20 20 21 23 24 25 24 24 25 27 29 30 31 32 32 33 33 34 34 34 32
25 24 24 24 24 25 26 26 25 24 23 22 22 23 24 25 26 25 26 27 29 30 30 30 30 31 33 34 34 34 33 32
26 25 25 26 27 28 28 28 28 26 25 24 25 25 26 26 26 26 27 28 30 31 31 31 30 32 33 33 33 33 32 31
28 27 28 29 30 30 30 30 29 28 28 27 27 26 26 26 26 27 27 29 30 32 32 32 31 31 32 32 32 32 31 31
31 29 29 29 31 32 31 31 31 31 29 29 28 27 27 27 26 26 27 28 30 31 32 33 33 32 31 32 30 27 26 24
31 30 30 30 31 32 33 34 34 32 31 30 29 28 28 27 26 26 27 28 30 31 33 34 35 34 33 30 29 26 25 24
34 32 30 30 32 35 37 36 34 33 32 30 29 28 27 27 26 26 27 29 31 32 33 34 35 35 33 32 32 32 29 24
37 33 31 30 31 34 34 34 34 34 34 32 30 28 27 27 26 26 27 29 30 32 34 34 34 33 33 32 31 33 35 36
40 35 33 31 31 31 33 35 36 35 33 32 30 28 27 26 26 26 27 29 30 32 35 35 35 33 31 30 30 32 34 37
46 40 36 34 30 28 30 33 34 34 33 31 29 28 26 25 26 26 28 29 31 34 35 35 35 33 32 31 30 29 31 33
49 44 41 36 30 26 26 28 30 32 33 31 29 27 25 26 25 26 29 30 32 33 34 34 34 32 29 29 29 31 31 31
48 48 43 38 31 25 24 25 26 30 32 31 30 27 26 25 26 28 29 29 31 33 34 34 33 31 29 29 30 30 30 31
Wind_Direction
204 217 246 268 287 294 291 287 288 290 294 306 317 324 321 321 322 324 323 319 316 318 319 320 319 317 314 311 310 308 305 304
213 220 245 269 285 292 283 275 280 289 303 318 324 324 324 324 322 319 316 311 311 310 308 306 306 305 304 303 301 301 301 300
222 226 240 263 279 284 272 266 270 283 299 310 317 322 322 321 319 316 313 308 306 305 306 307 308 308 307 306 305 303 301 299
234 240 244 260 276 280 265 259 266 279 291 302 311 316 318 320 318 314 310 307 306 305 308 310 310 308 306 303 302 302 300 298
239 251 255 259 272 273 261 258 266 275 283 295 309 315 317 317 313 311 310 308 305 306 309 310 309 307 305 303 302 301 299 297
240 253 261 261 268 266 255 255 261 271 281 294 304 311 314 313 310 307 303 301 301 303 306 307 306 303 301 300 300 298 297 296
244 252 259 262 264 260 252 253 260 268 276 286 296 304 310 310 307 303 300 298 299 303 305 304 304 303 302 301 299 297 296 294
244 251 257 259 261 256 252 254 260 267 274 283 291 299 306 308 307 303 298 299 301 303 304 305 306 306 306 304 302 301 300 300
246 250 253 257 258 254 252 255 258 264 271 277 285 294 302 306 305 300 297 299 302 306 308 309 309 308 306 304 303 301 300 300
250 257 257 257 258 255 252 255 258 262 269 276 283 290 296 301 302 298 297 300 303 305 308 309 311 309 307 305 303 300 299 298
258 260 260 256 256 253 252 255 258 262 267 274 280 286 293 299 301 298 298 302 306 308 309 311 312 309 306 303 301 298 298 298
256 254 254 253 253 252 253 255 257 261 265 272 277 285 293 299 300 298 302 307 309 310 312 313 312 310 308 305 302 302 301 301
256 257 259 259 258 255 255 256 257 259 265 270 277 284 291 295 297 299 303 308 310 312 314 315 316 315 312 309 306 304 302 303
258 260 260 260 258 253 251 251 254 259 264 269 276 282 288 292 294 298 304 309 313 316 318 318 317 316 313 310 307 306 306 308
261 261 260 259 256 255 254 255 257 260 264 268 273 279 286 290 294 300 306 310 314 316 319 321 319 317 315 314 311 308 308 311
260 259 259 258 259 258 256 255 255 257 262 268 272 279 285 289 295 303 308 312 317 320 322 322 321 319 316 313 312 310 311 311
261 260 257 258 261 258 255 253 256 259 262 267 271 278 284 289 297 301 308 315 320 323 323 322 320 318 315 314 315 315 314 314
257 256 255 256 260 259 256 256 257 259 262 264 270 277 283 290 295 303 310 315 321 322 321 321 320 318 315 317 318 317 313 311
257 254 252 252 256 257 257 258 260 261 263 265 270 275 283 289 296 303 308 314 316 317 319 319 318 315 315 317 316 314 313 313
261 257 250 249 252 256 259 263 265 264 264 264 268 273 279 288 295 300 304 310 314 316 317 317 316 314 316 317 314 311 312 316
Height
3151 3153 3154 3154 3154 3153 3153 3153 3154 3153 3153 3153 3152 3152 3151 3151 3150 3149 3149 3148 3147 3147 3146 3146 3145 3144 3142 3141 3140 3138 3136 3135
3149 3150 3151 3152 3152 3151 3151 3152 3152 3152 3152 3152 3151 3150 3149 3148 3147 3147 3146 3146 3145 3144 3143 3143 3142 3140 3139 3138 3137 3135 3133 3132
3147 3147 3148 3149 3149 3149 3149 3149 3150 3150 3151 3150 3150 3149 3148 3147 3146 3144 3144 3143 3142 3141 3140 3140 3138 3137 3135 3133 3132 3131 3130 3127
3145 3145 3145 3145 3146 3146 3146 3147 3148 3148 3148 3149 3148 3147 3146 3144 3144 3143 3142 3141 3140 3139 3138 3137 3136 3134 3132 3130 3128 3126 3124 3123
3141 3142 3142 3142 3142 3143 3143 3144 3145 3145 3145 3145 3145 3144 3143 3141 3140 3139 3139 3138 3137 3136 3135 3133 3132 3130 3127 3125 3123 3121 3119 3116
3137 3138 3139 3139 3139 3140 3140 3141 3142 3142 3142 3142 3142 3141 3140 3139 3138 3137 3136 3135 3134 3133 3132 3129 3127 3125 3122 3119 3117 3116 3114 3111
3134 3135 3135 3135 3135 3136 3136 3137 3138 3138 3138 3138 3138 3138 3137 3136 3135 3133 3132 3131 3130 3129 3127 3126 3123 3119 3117 3114 3112 3109 3106 3104
3129 3130 3131 3131 3131 3132 3132 3133 3134 3134 3134 3134 3134 3134 3133 3132 3131 3129 3128 3127 3126 3125 3123 3121 3118 3115 3111 3108 3106 3103 3101 3098
3124 3125 3126 3126 3127 3127 3128 3128 3129 3130 3130 3130 3130 3130 3129 3128 3126 3125 3123 3122 3121 3119 3117 3115 3112 3109 3106 3103 3100 3097 3094 3093
3118 3120 3121 3122 3122 3123 3123 3124 3124 3125 3126 3125 3125 3125 3124 3123 3121 3120 3118 3116 3115 3113 3111 3109 3107 3104 3100 3097 3094 3091 3088 3085
3113 3114 3116 3116 3116 3117 3118 3119 3120 3121 3121 3120 3120 3119 3118 3117 3116 3114 3113 3111 3109 3107 3105 3103 3101 3098 3094 3091 3088 3084 3081 3079
3106 3107 3108 3109 3110 3111 3113 3113 3114 3115 3115 3115 3114 3113 3112 3111 3110 3108 3106 3104 3102 3100 3098 3096 3094 3091 3088 3084 3081 3079 3076 3073
3098 3100 3102 3103 3104 3105 3107 3108 3109 3109 3109 3109 3108 3107 3106 3105 3103 3102 3100 3098 3097 3094 3091 3089 3087 3085 3082 3078 3075 3073 3070 3067
3091 3093 3094 3096 3098 3100 3100 3100 3102 3103 3103 3103 3102 3101 3100 3099 3097 3096 3094 3092 3090 3088 3085 3081 3079 3077 3075 3074 3071 3069 3066 3062
3084 3086 3088 3090 3091 3092 3092 3094 3095 3097 3097 3096 3096 3095 3095 3093 3092 3090 3088 3086 3084 3082 3079 3076 3072 3069 3066 3064 3060 3059 3059 3058
3076 3078 3081 3082 3083 3084 3085 3088 3088 3089 3089 3090 3090 3089 3088 3087 3085 3084 3082 3081 3078 3075 3072 3069 3066 3063 3059 3056 3054 3052 3048 3046
3069 3071 3073 3074 3075 3077 3078 3079 3081 3082 3082 3083 3083 3082 3082 3081 3079 3079 3077 3075 3072 3068 3065 3063 3060 3057 3053 3050 3048 3045 3041 3037
3060 3063 3065 3066 3068 3070 3071 3072 3074 3075 3076 3076 3076 3076 3076 3075 3074 3072 3070 3068 3065 3063 3060 3057 3053 3050 3046 3042 3040 3040 3037 3034
3049 3053 3056 3059 3061 3063 3064 3065 3066 3067 3069 3069 3070 3070 3069 3069 3068 3066 3064 3061 3059 3057 3053 3050 3047 3044 3041 3037 3034 3032 3031 3027
3040 3043 3047 3051 3054 3056 3058 3058 3059 3060 3062 3063 3063 3063 3062 3062 3061 3060 3058 3055 3053 3049 3047 3044 3040 3037 3035 3032 3029 3028 3024 3019